User: anonymous   Login
Location: Carri�res
(48.9069°N, 2.1792°E)
Time: 21:05:08
(UTC+00:00)
Language:

Tsikada Rocket - Orbit

View from above orbital plane
View from above orbital plane
View from above satellite
View from above satellite

Ground track
Ground track

The orbit data is extracted from the following two-line orbital elements,

1 23466U 95002D   21110.54370020 -.00000056  00000-0 -75015-4 0  9998
2 23466  82.9211 304.5273 0033448 249.4466 163.3034 13.74440534315809
Epoch (UTC): 20 April 2021 13:02:55
Eccentricity: 0.0033448
inclination: 82.9211°
perigee height: 959 km
apogee height: 1008 km
right ascension of ascending node: 304.5273°
argument of perigee: 249.4466°
revolutions per day: 13.74440534
mean anomaly at epoch: 163.3034°
orbit number at epoch: 31580

The dashed part of the orbit path shows where the satellite is in the earth's shadow,  

DLR